Flag for Germany Weather past 2 weeks in Rathenow, Brandenburg, Germany

Now
38 °F

Scattered clouds.


Feels Like: 36 °F
Forecast: 44 / 51 °F
Wind: 3 mph from West

Location: Neuruppin

Current Time: Dec 21, 2014 at 10:25:30 AM

Latest Report: Dec 21, 2014 at 9:00 AM


Visibility: 6 mi

Pressure: 30.20 "Hg

Humidity: 91%

Dew point: 36 °F

Location of RathenowLocation

Historic Weather in Rathenow — Graph

°F

Rathenow temperature yesterday

Maximum temperature yesterday: 44 °F (at 11:00 AM)
Minimum temperature yesterday: 33 °F (at 3:00 PM)
Average temperature yesterday: 40 °F

Past Weeks' High & Low Weather Summary

 TemperatureHumidityPressure
High53 °F (Dec 18, 11:00 PM)100% (Dec 7, 1:00 AM)30.37 "Hg (Dec 7, 1:00 AM)
Low31 °F (Dec 9, 1:00 AM)75% (Dec 20, 6:00 AM)29.32 "Hg (Dec 12, 6:00 PM)
Average39 °F91%29.89 "Hg
* Reported Dec 6 9:00 AM — Dec 21 9:00 AM, Rathenow, Weather by CustomWeather, © 2014

Note: Actual official high and low records may vary slightly from our data, if they occured in-between our weather recording intervals... More about our weather records

Advertising

Rathenow weather history for previous 24 hours

 ConditionsComfort  
Time TempWeatherWind HumidityBarometerVisibility
9:00 AM
Dec 21
38 °FScattered clouds.3 mph91%30.20 "Hg6 mi
8:00 AM39 °FOvercast.5 mph90%30.19 "Hg6 mi
7:00 AM40 °FPassing clouds.5 mph85%30.15 "Hg6 mi
6:00 AM41 °FOvercast.5 mph84%30.13 "Hg6 mi
5:00 AM41 °FOvercast.6 mph85%30.09 "Hg6 mi
3:00 AM39 °FOvercast.5 mph90%30.04 "Hg6 mi
2:00 AM38 °FOvercast.6 mph89%30.01 "Hg6 mi
1:00 AM38 °FOvercast.6 mph88%29.98 "Hg6 mi
12:00 AM39 °FOvercast.8 mph85%29.95 "Hg6 mi
11:00 PM
Dec 20
38 °FPassing clouds.6 mph86%29.93 "Hg6 mi
9:00 PM38 °FPassing clouds.7 mph86%29.85 "Hg6 mi
8:00 PM38 °FPassing clouds.7 mph90%29.81 "Hg6 mi
7:00 PM39 °FPassing clouds.8 mph90%29.77 "Hg4 mi
6:00 PM37 °FOvercast.6 mph93%29.76 "Hg6 mi
5:00 PM36 °FOvercast.5 mph94%29.76 "Hg7 mi
4:00 PM34 °FOvercast.5 mph96%29.75 "Hg6 mi
3:00 PM33 °FLow clouds.3 mph97%29.75 "Hg6 mi
2:00 PM34 °FLow clouds.3 mph95%29.78 "Hg1 mi
1:00 PM38 °FOvercast.8 mph86%29.78 "Hg6 mi
12:00 PM44 °FOvercast.8 mph75%29.77 "Hg6 mi
11:00 AM44 °FOvercast.8 mph75%29.80 "Hg6 mi
Weather by CustomWeather, © 2014

See weather overviewHow to use our weather pages